sat.trackr.live / text

‹ back to catalog

STARLINK-31536

NORAD 59192 · 2024-045Q

PAYLOAD ACTIVE UNKNOWN

§ Identity

Operator
Country
US
Launch date
2024-03-10
Launch site
AFETR
Launch vehicle
Mass (kg)
RCS (m²)

Purposes: comms

External: N2YO · Heavens-Above · Gunter

§ Orbital elements

Epoch: 2026-09-20T22:00:03.000096Z

Period
94.27 min
Inclination
43.0002°
Eccentricity
0.0001489
Mean motion
15.27553079 rev/d
Perigee alt
482.1 km
Apogee alt
484.2 km
Semi-major
6,861.3 km
B*
2.3220e-3
RAAN
69.9957°
Arg perigee
275.5113°
Mean anomaly
270.1182°
Rev number
586

§ Raw data

STARLINK-315361 59192U 24045Q   26263.91670139  .00064139  00000+0  23220-2 0  99992 59192  43.0002  69.9957 0001489 275.5113 270.1182 15.27553079  5862

JSON: /api/v1/satellites/59192 · /tle

For live sub-satellite position, see the globe view (requires WebGL).

§ Visibility from observer

Set your observer location to see the next 7 days of passes ≥ 10°. The values pass through the URL so the page stays shareable.

No JS? Fill the form by hand. The geolocation button needs JavaScript.